• Em Portugal
  • Lista de países
  • Para 7 dias
  • Temperatura da água
  • Mapas de satélite
  • Mapa do tempo
  • Widgets de tempo
  • user-avatar
    Iniciar Sessão

    Previsão horária em Yerevan

    Hoje, 21 Novembro, Terça-feira

    Tempo Temperatura Precipitação Vento Pressão Humidade
    00:00 +9°C° 0 mm 2 m/s 686 mmHg 63%
    01:00 +9°C° 0 mm 2 m/s 686 mmHg 64%
    02:00 +9°C° 0 mm 2 m/s 686 mmHg 65%
    03:00 +9°C° 0 mm 2 m/s 685 mmHg 68%
    04:00 +9°C° 0 mm 2 m/s 685 mmHg 68%
    05:00 +9°C° 0 mm 2 m/s 685 mmHg 68%
    06:00 +9°C° 0 mm 2 m/s 685 mmHg 68%
    07:00 +10°C° 0,1 mm 2 m/s 684 mmHg 65%
    08:00 +11°C° 0,1 mm 3 m/s 684 mmHg 62%
    09:00 +12°C° 0,1 mm 3 m/s 684 mmHg 60%
    10:00 +13°C° 0,2 mm 3 m/s 684 mmHg 58%
    11:00 +13°C° 0,2 mm 3 m/s 684 mmHg 56%
    12:00 +14°C° 0,2 mm 4 m/s 683 mmHg 54%
    13:00 +14°C° 0,1 mm 4 m/s 683 mmHg 55%
    14:00 +14°C° 0,1 mm 4 m/s 683 mmHg 56%
    15:00 +14°C° 0,1 mm 4 m/s 682 mmHg 57%
    16:00 +13°C° 0 mm 4 m/s 682 mmHg 62%
    17:00 +12°C° 0 mm 3 m/s 682 mmHg 68%
    18:00 +11°C° 0 mm 3 m/s 681 mmHg 73%
    19:00 +11°C° 0 mm 3 m/s 681 mmHg 74%
    20:00 +10°C° 0 mm 3 m/s 681 mmHg 74%
    21:00 +10°C° 0 mm 3 m/s 680 mmHg 75%
    22:00 +10°C° 0,1 mm 3 m/s 680 mmHg 75%
    23:00 +10°C° 0,1 mm 3 m/s 680 mmHg 75%

    Amanhã, 22 Novembro, Quarta-feira

    Tempo Temperatura Precipitação Vento Pressão Humidade
    00:00 +10°C° 0,1 mm 3 m/s 681 mmHg 76%
    01:00 +10°C° 0,3 mm 2 m/s 681 mmHg 76%
    02:00 +10°C° 0,3 mm 2 m/s 681 mmHg 77%
    03:00 +9°C° 0,3 mm 2 m/s 681 mmHg 78%
    04:00 +9°C° 1 mm 2 m/s 681 mmHg 79%
    05:00 +9°C° 1 mm 2 m/s 681 mmHg 80%
    06:00 +8°C° 1 mm 2 m/s 681 mmHg 81%
    07:00 +8°C° 0,9 mm 2 m/s 681 mmHg 80%
    08:00 +8°C° 0,9 mm 2 m/s 681 mmHg 80%
    09:00 +8°C° 0,9 mm 2 m/s 681 mmHg 79%
    10:00 +8°C° 0,8 mm 2 m/s 681 mmHg 77%
    11:00 +8°C° 0,8 mm 2 m/s 681 mmHg 75%
    12:00 +8°C° 0,8 mm 3 m/s 680 mmHg 73%
    13:00 +8°C° 0,4 mm 3 m/s 681 mmHg 71%
    14:00 +8°C° 0,4 mm 3 m/s 681 mmHg 69%
    15:00 +8°C° 0,4 mm 3 m/s 681 mmHg 67%
    16:00 +7°C° 0,2 mm 2 m/s 682 mmHg 68%
    17:00 +7°C° 0,2 mm 2 m/s 682 mmHg 69%
    18:00 +6°C° 0,2 mm 2 m/s 683 mmHg 70%
    19:00 +5°C° 0,2 mm 2 m/s 683 mmHg 71%
    20:00 +4°C° 0,2 mm 3 m/s 684 mmHg 72%
    21:00 +3°C° 0,2 mm 3 m/s 684 mmHg 73%
    22:00 +3°C° 0,1 mm 3 m/s 684 mmHg 73%
    23:00 +3°C° 0,1 mm 2 m/s 684 mmHg 73%

    Depois de amanhã, 23 Novembro, Quinta-feira

    Tempo Temperatura Precipitação Vento Pressão Humidade
    00:00 +3°C° 0,1 mm 2 m/s 685 mmHg 73%
    01:00 +3°C° 0,1 mm 2 m/s 685 mmHg 72%
    02:00 +2°C° 0,1 mm 2 m/s 685 mmHg 71%
    03:00 +2°C° 0,1 mm 2 m/s 685 mmHg 71%
    04:00 +2°C° 0 mm 1 m/s 685 mmHg 70%
    05:00 +1°C° 0 mm 1 m/s 686 mmHg 70%
    06:00 +1°C° 0 mm 1 m/s 686 mmHg 70%
    07:00 -1°C° 0 mm 2 m/s 686 mmHg 68%
    08:00 +1°C° 0 mm 2 m/s 687 mmHg 65%
    09:00 +2°C° 0 mm 2 m/s 687 mmHg 62%
    10:00 +2°C° 0 mm 3 m/s 687 mmHg 59%
    11:00 +2°C° 0 mm 3 m/s 686 mmHg 56%
    12:00 +3°C° 0 mm 3 m/s 686 mmHg 53%
    13:00 +3°C° 0 mm 3 m/s 686 mmHg 53%
    14:00 +3°C° 0 mm 3 m/s 686 mmHg 53%
    15:00 +3°C° 0 mm 3 m/s 686 mmHg 52%
    16:00 +3°C° 0 mm 3 m/s 686 mmHg 56%
    17:00 +2°C° 0 mm 3 m/s 686 mmHg 59%
    18:00 +1°C° 0 mm 3 m/s 686 mmHg 63%
    19:00 +2°C° 0,1 mm 2 m/s 687 mmHg 64%
    20:00 +2°C° 0,1 mm 2 m/s 687 mmHg 66%
    21:00 +2°C° 0,1 mm 2 m/s 687 mmHg 67%
    22:00 +2°C° 0,1 mm 2 m/s 687 mmHg 69%
    23:00 +3°C° 0,1 mm 1 m/s 687 mmHg 70%

    24 Novembro, Sexta-feira

    Tempo Temperatura Precipitação Vento Pressão Humidade
    00:00 +3°C° 0,1 mm 1 m/s 687 mmHg 71%
    01:00 +2°C° 0,2 mm 1 m/s 687 mmHg 72%
    02:00 +2°C° 0,2 mm 1 m/s 687 mmHg 73%
    03:00 +2°C° 0,2 mm 1 m/s 687 mmHg 74%
    04:00 +2°C° 0,1 mm 1 m/s 688 mmHg 74%
    05:00 +1°C° 0,1 mm 1 m/s 688 mmHg 74%
    06:00 +1°C° 0,1 mm 1 m/s 688 mmHg 74%
    07:00 +2°C° 0 mm 1 m/s 689 mmHg 72%
    08:00 +2°C° 0 mm 1 m/s 689 mmHg 70%
    09:00 +2°C° 0 mm 1 m/s 690 mmHg 67%
    10:00 +3°C° 0 mm 1 m/s 689 mmHg 64%
    11:00 +3°C° 0 mm 2 m/s 689 mmHg 60%
    12:00 +3°C° 0 mm 2 m/s 689 mmHg 57%
    13:00 +3°C° 0 mm 2 m/s 689 mmHg 57%
    14:00 +3°C° 0 mm 2 m/s 689 mmHg 56%
    15:00 +4°C° 0 mm 1 m/s 689 mmHg 56%
    16:00 +3°C° 0 mm 1 m/s 689 mmHg 58%
    17:00 +2°C° 0 mm 1 m/s 690 mmHg 60%
    18:00 +1°C° 0 mm 1 m/s 690 mmHg 63%
    19:00 +1°C° 0 mm 1 m/s 691 mmHg 63%
    20:00 +1°C° 0 mm 1 m/s 691 mmHg 63%
    21:00 0°C° 0 mm 1 m/s 691 mmHg 64%
    22:00 0°C° 0 mm 1 m/s 692 mmHg 64%
    23:00 0°C° 0 mm 1 m/s 692 mmHg 64%

    25 Novembro, Sábado

    Tempo Temperatura Precipitação Vento Pressão Humidade
    00:00 -1°C° 0 mm 1 m/s 692 mmHg 65%
    01:00 -1°C° 0 mm 1 m/s 692 mmHg 65%
    02:00 -2°C° 0 mm 1 m/s 692 mmHg 65%
    03:00 -2°C° 0 mm 1 m/s 692 mmHg 65%
    04:00 -2°C° 0 mm 1 m/s 693 mmHg 66%
    05:00 -2°C° 0 mm 1 m/s 693 mmHg 66%
    06:00 -3°C° 0 mm 1 m/s 693 mmHg 66%
    07:00 -2°C° 0,1 mm 1 m/s 694 mmHg 64%
    08:00 -1°C° 0,1 mm 1 m/s 694 mmHg 63%
    09:00 0°C° 0,1 mm 1 m/s 695 mmHg 61%
    10:00 -2°C° 0,1 mm 2 m/s 695 mmHg 59%
    11:00 -1°C° 0,1 mm 2 m/s 695 mmHg 58%
    12:00 +1°C° 0,1 mm 2 m/s 695 mmHg 57%
    13:00 +1°C° 0 mm 2 m/s 695 mmHg 56%
    14:00 +1°C° 0 mm 2 m/s 695 mmHg 56%
    15:00 +2°C° 0 mm 1 m/s 696 mmHg 55%
    16:00 +1°C° 0 mm 1 m/s 696 mmHg 57%
    17:00 -2°C° 0 mm 2 m/s 697 mmHg 59%
    18:00 -4°C° 0 mm 2 m/s 697 mmHg 62%
    19:00 -4°C° 0 mm 2 m/s 698 mmHg 61%
    20:00 -4°C° 0 mm 2 m/s 698 mmHg 61%
    21:00 -5°C° 0 mm 2 m/s 699 mmHg 60%
    22:00 -5°C° 0 mm 2 m/s 699 mmHg 60%
    23:00 -5°C° 0 mm 2 m/s 699 mmHg 59%

    26 Novembro, Domingo

    Tempo Temperatura Precipitação Vento Pressão Humidade
    00:00 -3°C° 0 mm 1 m/s 699 mmHg 59%
    01:00 -3°C° 0 mm 1 m/s 699 mmHg 58%
    02:00 -4°C° 0 mm 1 m/s 699 mmHg 57%
    03:00 -4°C° 0 mm 1 m/s 699 mmHg 56%
    04:00 -4°C° 0 mm 1 m/s 698 mmHg 55%
    05:00 -4°C° 0 mm 1 m/s 698 mmHg 54%
    06:00 -4°C° 0 mm 1 m/s 698 mmHg 53%
    07:00 -2°C° 0 mm 1 m/s 698 mmHg 52%
    08:00 -1°C° 0 mm 1 m/s 698 mmHg 50%
    09:00 0°C° 0 mm 1 m/s 698 mmHg 48%
    10:00 +1°C° 0 mm 1 m/s 698 mmHg 47%
    11:00 +3°C° 0 mm 1 m/s 697 mmHg 45%
    12:00 +3°C° 0 mm 2 m/s 697 mmHg 43%
    13:00 +3°C° 0 mm 2 m/s 696 mmHg 44%
    14:00 +3°C° 0 mm 2 m/s 696 mmHg 44%
    15:00 +4°C° 0 mm 1 m/s 696 mmHg 44%
    16:00 +3°C° 0 mm 1 m/s 696 mmHg 45%
    17:00 +1°C° 0 mm 1 m/s 696 mmHg 46%
    18:00 0°C° 0 mm 1 m/s 696 mmHg 47%
    19:00 0°C° 0 mm 1 m/s 696 mmHg 46%
    20:00 0°C° 0 mm 1 m/s 696 mmHg 46%
    21:00 -1°C° 0 mm 1 m/s 696 mmHg 45%
    22:00 -1°C° 0 mm 1 m/s 696 mmHg 44%
    23:00 -1°C° 0 mm 1 m/s 696 mmHg 44%
    Mostrar mais